Satellite-Ground Cal/Val Site Overpasses Predictions

Prediction of Satellite NPP Overpassing Cal/Val Site: Antarctic Dome C

Ground Cal/Val Site Location: Latitude: -75.10, Longitude: 123.35; Satellite-Ground Site NADIR distance within 100 km.

Table of predicted overpasses for the next 14.0 days since TLE Epoch: 10/5/2024
Interval Starting Time Ending Time Minimum Distance Time Minimum Distance (km)
1 10/05/2024 14:41:48 10/05/2024 14:42:13 10/05/2024 14:42:01 52.84
2 10/06/2024 07:43:26 10/06/2024 07:43:47 10/06/2024 07:43:37 69.03
3 10/07/2024 07:24:31 10/07/2024 07:24:58 10/07/2024 07:24:45 39.35
4 10/09/2024 15:06:49 10/09/2024 15:07:00 10/09/2024 15:06:55 92.79
5 10/10/2024 14:47:47 10/10/2024 14:48:15 10/10/2024 14:48:01 18.59
6 10/12/2024 07:30:31 10/12/2024 07:31:00 10/12/2024 07:30:46 5.21
7 10/15/2024 14:53:45 10/15/2024 14:54:14 10/15/2024 14:54:00 16.02
8 10/16/2024 14:35:02 10/16/2024 14:35:13 10/16/2024 14:35:08 91.03
9 10/17/2024 07:36:29 10/17/2024 07:36:57 10/17/2024 07:36:43 30.22
